Location: Barrio de Canyet
(41.4665°N, 2.2381°E)
Time: 03:08:02
(UTC+00:00)

SL-4 R/B - Pass Details

Date: 09 April 2020
Orbit: 428 x 666 km, 51.6° (Epoch: 31 May)

Event Time Altitude Azimuth Distance (km) Brightness Sun altitude
Rises 20:41:21 0° 295° (WNW) 2,392 6.6 -24.0°
Reaches altitude 10° 20:44:07 10° 319° (NW) 1,531 5.3 -24.4°
Maximum altitude 20:46:14 15° 358° (N) 1,256 4.3 -24.7°
Enters shadow 20:47:05 14° 15° (NNE) 1,312 4.2 -24.9°
